• Join FlightAware (Why Join?)
  • Login
  • US Flag 
11:38AM EST


 

Airport Tracker/Info


-or-


 

Live Flight TrackerFlight Track Log ✈ SIL4078 ✈ 01-May-2013 ✈ KCLE - KJHW

Flight Track Log - Related Links

Times and Time Zones

All times are in EDT time to prevent confusion due to time zone crossing. See the SIL4078 flight status page for this flight to view local times or setup timezone preferences in your user account.

Time Position Orientation Groundspeed Altitude Reporting Facility
EDT Latitude Longitude Course Direction KTS MPH feet Rate Location/Type
03:39PM 41.4022 -81.8925 310° West 172 198 1,700  Level Cleveland Center
03:40PM 41.4247 -81.9289 310° West 181 208 3,000 1,608 Climbing Cleveland Center
03:41PM 41.4661 -81.9603 330° Northwest 211 243 4,300 1,397 Climbing Cleveland Center
03:41PM 41.4828 -81.9578 North 211 243 4,700 1,672 Climbing Cleveland Center
03:42PM 41.5242 -81.9728 345° North 213 245 6,000 1,500 Climbing Cleveland Center
03:42PM 41.5408 -81.9703 North 211 243 6,200 197 Climbing Cleveland Center
03:43PM 41.5706 -81.9403 37° Northeast 210 242 6,200 500 Level Cleveland Center
03:43PM 41.5789 -81.9211 60° Northeast 192 221 6,700 1,672 Climbing Cleveland Center
03:44PM 41.6025 -81.8772 54° Northeast 198 228 7,900 1,700 Climbing Cleveland Center
03:44PM 41.6153 -81.8497 58° Northeast 197 227 8,400 889 Climbing Cleveland Center
03:45PM 41.6492 -81.7919 52° Northeast 212 244 9,100 800 Climbing Cleveland Center
03:46PM 41.6811 -81.7286 56° Northeast 212 244 10,000 900 Climbing Cleveland Center
03:47PM 41.7172 -81.6681 51° Northeast 212 244 10,900 500 Climbing Cleveland Center
03:48PM 41.7450 -81.6017 61° Northeast 207 238 11,000 100 Climbing Cleveland Center
03:49PM 41.7789 -81.5383 54° Northeast 207 238 11,100 500 Climbing Cleveland Center
03:50PM 41.8106 -81.4775 55° Northeast 201 231 12,000 950 Climbing Cleveland Center
03:51PM 41.8381 -81.4219 56° Northeast 196 226 13,000 600 Climbing Cleveland Center
03:52PM 41.8408 -81.3439 87° East 196 226 13,200 843 Climbing Cleveland Center
03:53PM 41.8578 -81.2633 74° East 209 241 14,700 1,450 Climbing Cleveland Center
03:54PM 41.8792 -81.1883 69° East 209 241 16,100 1,109 Climbing Cleveland Center
03:55PM 41.8961 -81.1047 75° East 215 247 16,900 450 Climbing Cleveland Center
03:56PM 41.9092 -81.0156 79° East 234 269 17,000 50 Climbing Cleveland Center
03:57PM 41.9242 -80.9097 79° East 253 291 17,000  Level Cleveland Center
03:58PM 41.9369 -80.8092 80° East 266 306 17,000  Level Cleveland Center
03:59PM 41.9453 -80.7061 84° East 271 312 17,000 -50 Level Cleveland Center
04:00PM 41.9619 -80.6083 77° East 271 312 16,900 -100 Descending Cleveland Center
04:01PM 41.9828 -80.5106 74° East 277 319 16,800 50 Descending Cleveland Center
04:02PM 42.0017 -80.4156 75° East 277 319 17,000 100 Climbing Cleveland Center
04:03PM 42.0139 -80.3122 81° East 277 319 17,000 -300 Level Cleveland Center
04:04PM 42.0261 -80.2142 80° East 277 319 16,400 -850 Descending Cleveland Center
04:05PM 42.0425 -80.1136 78° East 277 319 15,300 -1,300 Descending Cleveland Center
04:06PM 42.0586 -80.0211 77° East 272 313 13,800 -1,750 Descending Cleveland Center
04:07PM 42.0769 -79.9175 77° East 272 313 11,800 -2,000 Descending Cleveland Center
04:09PM 42.0793 -79.8346 88° East  Level FlightAware Approximate
04:16PM 42.1434 -79.2899 77° East  Level FlightAware Approximate
04:17PM 42.1500 -79.2500 77° East  Level FlightAware Approximate
04:18PM 42.1534 -79.2580 77° East  Level Estimated
04:19PM 42.1500 -79.2500 77° East  Level FlightAware Approximate
04:20PM 42.1534 -79.2580 77° East  Level Estimated
04:21PM 42.1500 -79.2500 77° East  Level FlightAware Approximate
04:22PM 42.1534 -79.2580 77° East  Level Estimated
04:23PM 42.1500 -79.2500 77° East  Level FlightAware Approximate